Sitka, AK

7:51 AM AKDT on April 19, 2018 (GMT -0800)
Sitka Rocky Gutierrez

Weather History for PASI - November, 2012

Change the Weather History Date:

Tuesday, November 27, 2012

  Actual Average Record
Temperature  
Mean Temperature 38 °F 38 °F  
Max Temperature 44 °F 42 °F 56 °F (2002)
Min Temperature 33 °F 34 °F 10 °F (1985)
Degree Days  
Heating Degree Days 26 27  
Month to date heating degree days 685  
Moisture  
Dew Point 32 °F    
Average Humidity 79    
Maximum Humidity 96    
Minimum Humidity 55    
Precipitation  
Precipitation 0.00 in 0.31 in 2.10 in (1981)
Month to date precipitation 8.86  
Year to date precipitation 77.04  
Sea Level Pressure  
Sea Level Pressure 29.86 in    
Wind  
Wind Speed 4 mph (North)    
Max Wind Speed 15 mph    
Max Gust Speed 21 mph    
Visibility 10 miles    
Events      
T = Trace of Precipitation, MM = Missing Value Source: NWS Daily Summary

Daily Weather History Graph

Daily Weather History Graph

Search for Another Location

Airport or City:

Astronomy

Nov. 27, 2012 Rise Set
Actual Time 8:08 AM AKST 3:29 PM AKST
Civil Twilight 7:22 AM AKST 4:15 PM AKST
Nautical Twilight 6:33 AM AKST 5:04 PM AKST
Astronomical Twilight 5:47 AM AKST 5:50 PM AKST
Moon 3:08 PM AKST (11/27) 7:16 AM AKST (11/27)
Length of Visible Light 8h 53m
Length of Day
7h 20m
Full, 100% of the Moon is Illuminated
Nov 27
Full
Nov 28
Full
Dec 6
Last Quarter
Dec 12
New
Dec 19
First Quarter

Hourly Weather History & Observations

Time (AKST) Temp. Windchill Dew Point Humidity Pressure Visibility Wind Dir Wind Speed Gust Speed Precip Events Conditions
12:53 AM 35.1 °F 32.2 °F 33.1 °F 92% 30.04 in 10.0 mi North 3.5 mph - N/A   Clear
1:53 AM 33.1 °F 30.0 °F 32.0 °F 96% 30.03 in 10.0 mi ESE 3.5 mph - N/A   Clear
3:53 AM 35.1 °F 32.2 °F 33.1 °F 92% 29.98 in 10.0 mi North 3.5 mph - N/A   Clear
4:53 AM 34.0 °F - 32.0 °F 92% 29.95 in 10.0 mi Calm Calm - N/A   Clear
5:53 AM 33.1 °F - 30.0 °F 89% 29.94 in 10.0 mi Calm Calm - N/A   Clear
6:53 AM 33.1 °F - 30.9 °F 92% 29.91 in 10.0 mi Calm Calm - N/A   Clear
7:53 AM 34.0 °F 31.0 °F 32.0 °F 92% 29.90 in 10.0 mi ESE 3.5 mph - N/A   Clear
8:53 AM 35.1 °F - 32.0 °F 89% 29.90 in 10.0 mi Calm Calm - N/A   Mostly Cloudy
9:53 AM 35.1 °F - 33.1 °F 92% 29.90 in 10.0 mi Calm Calm - N/A   Overcast
10:53 AM 35.1 °F - 34.0 °F 96% 29.88 in 10.0 mi Calm Calm - N/A   Overcast
11:53 AM 39.9 °F 32.9 °F 34.0 °F 79% 29.86 in 10.0 mi NNW 11.5 mph - N/A   Overcast
12:53 PM 41.0 °F 39.0 °F 33.1 °F 73% 29.84 in 10.0 mi NNW 3.5 mph - N/A   Mostly Cloudy
1:53 PM 41.0 °F 36.4 °F 33.1 °F 73% 29.82 in 10.0 mi NNW 6.9 mph - N/A   Mostly Cloudy
2:53 PM 41.0 °F 36.4 °F 33.1 °F 73% 29.81 in 10.0 mi NW 6.9 mph - N/A   Mostly Cloudy
3:53 PM 39.0 °F - 33.1 °F 79% 29.81 in 10.0 mi Calm Calm - N/A   Mostly Cloudy
4:53 PM 41.0 °F 38.0 °F 33.1 °F 73% 29.79 in 10.0 mi NW 4.6 mph - N/A   Mostly Cloudy
5:53 PM 42.1 °F 39.2 °F 35.1 °F 76% 29.78 in 10.0 mi West 4.6 mph - N/A   Overcast
6:53 PM 41.0 °F - 32.0 °F 70% 29.77 in 10.0 mi Calm Calm - N/A   Overcast
7:53 PM 42.1 °F 36.1 °F 30.9 °F 65% 29.76 in 10.0 mi WNW 10.4 mph - N/A   Mostly Cloudy
8:53 PM 42.1 °F 40.2 °F 32.0 °F 67% 29.77 in 10.0 mi NW 3.5 mph - N/A   Overcast
9:53 PM 44.1 °F 37.4 °F 28.9 °F 55% 29.76 in 10.0 mi ESE 13.8 mph - N/A   Overcast
10:53 PM 44.1 °F 41.5 °F 30.0 °F 58% 29.75 in 10.0 mi ENE 4.6 mph - N/A   Overcast
11:53 PM 44.1 °F 37.1 °F 32.0 °F 63% 29.73 in 10.0 mi East 15.0 mph 20.7 mph N/A   Overcast